Location: Helsinki
(60.1699°N, 24.9384°E)
Time: 10:06:09
(UTC+02:00)

Vanguard 2 Rocket - Pass Details

Date: 24 September 2023
Orbit: 552 x 3312 km, 32.9° (Epoch: 05 December)

Event Time Altitude Azimuth Distance (km) Brightness Sun altitude
Rises 16:43:06 0° 251° (WSW) 7,296 13.0 17.1°
Reaches altitude 10° 16:49:44 10° 240° (WSW) 6,222 14.0 16.4°
Maximum altitude 17:02:23 22° 199° (SSW) 4,750 11.5 15.0°
Drops below altitude 10° 17:12:40 10° 156° (SSE) 4,958 10.7 13.9°
Sets 17:17:07 0° 142° (SE) 5,533 10.8 13.4°
